[[{"header":{"parameterUnit":"m.s-1","parameterCategory":1,"la1":30.2991,"la2":30.254,"lo1":-89.0895,"lo2":-89.0444,"dy":0.0017,"dx":0.0017,"nx":28,"ny":28,"refTime":"2026-02-04T03:00:00:Z","depth":0,"parameterNumber":2,"parameterNumberName":"U-component_of_WINDS"},"data":[0,0,0,0,0,0,0,0,0,0,0,0,0,0,0,0,0,0,0,0,0,0,0,0,0,0,0,0,0,0,0,0,0,0,0,0,0,0,0,0,0,0,0,0,0,0,0,0,0,0,0,0,0,0,0,0,0,0,2.5511,2.5511,0,2.5557,2.5558,2.5558,2.5561,2.556,2.556,2.5559,2.5604,2.5605,2.5607,0,0,0,0,0,0,0,0,0,0,0,0,0,2.5423,2.5425,2.5511,2.5511,2.5512,2.5557,2.5558,2.5558,2.5561,2.556,2.556,2.5559,2.5603,2.5605,2.5607,0,0,0,0,0,0,0,0,0,0,0,0,0,2.5464,2.5425,2.5511,2.5519,2.552,2.5557,2.5558,2.5559,2.5561,2.556,2.5559,2.5559,2.5603,2.5605,2.5607,2.5639,0,0,2.5615,2.5616,0,0,0,0,0,0,0,0,2.5462,2.5468,2.5517,2.5518,2.552,2.5553,2.5543,2.5585,2.5561,2.5545,2.5559,2.5558,2.5587,2.5591,2.5601,2.5641,2.5643,2.5615,2.5617,2.5618,2.5619,0,0,0,0,0,0,0,2.5459,2.5466,2.5529,2.5518,2.5519,2.552,2.5525,2.5551,2.557,2.5547,2.5547,2.5553,2.5588,2.5599,2.5602,2.5643,2.5615,2.5618,2.5619,2.562,2.5712,2.5713,0,0,0,0,0,0,2.5455,2.5463,2.5528,2.553,2.5488,2.5522,2.5527,2.5543,2.557,2.5573,2.5553,2.5553,2.5595,2.5599,2.5604,2.5643,2.5618,2.562,2.5622,2.5711,2.5712,2.5714,0,0,0,0,0,0,2.5453,2.5461,2.5526,2.5497,2.5505,2.5524,2.5541,2.5544,2.5555,2.5575,2.5578,2.5561,2.5594,2.56,2.5631,2.5644,2.5621,2.5624,2.571,2.5712,2.5713,2.572,0,0,0,0,0,0,2.5451,2.546,2.5472,2.5497,2.5507,2.5552,2.5542,2.5545,2.556,2.5559,2.5583,2.5586,2.5594,2.5627,2.5633,2.5647,2.5626,2.5709,2.5711,2.5713,2.5719,2.5722,2.5724,0,0,0,0,0,2.5448,2.5472,2.5473,2.5481,2.5523,2.5553,2.5558,2.5568,2.5561,2.5573,2.5586,2.5585,2.5642,2.563,2.5637,2.5652,2.5708,2.571,2.5712,2.5718,2.5721,2.5724,0,0,0,0,0,0,2.5446,2.5475,2.5477,2.551,2.5529,2.5553,2.5569,2.5571,2.5592,2.559,2.5601,2.5606,2.5636,2.5647,2.5633,2.5685,2.5674,2.5678,2.5676,2.5679,2.5682,2.5678,2.5628,0,0,0,0,0,2.545,2.5473,2.5496,2.5523,2.5533,2.5549,2.5563,2.5569,2.5589,2.5597,2.5612,2.563,2.5653,2.5667,2.5688,2.5721,2.5726,2.5735,2.5738,2.574,2.5743,2.5762,2.5766,2.572,2.572,2.572,0,0,2.5457,2.5476,2.5489,2.5524,2.5539,2.5562,2.5556,2.558,2.5597,2.56,2.563,2.5642,2.5663,2.5695,2.571,2.5706,2.5757,2.5743,2.5744,2.5746,2.5764,2.5769,2.5772,2.5722,2.5722,2.5721,0,0,2.5482,2.5499,2.5524,2.554,2.5565,2.5576,2.5582,2.5606,2.5615,2.5645,2.5648,2.5669,2.5706,2.5722,2.5735,2.5769,2.5769,2.5776,2.5789,2.5808,2.5811,2.5814,2.5826,2.5831,2.5778,2.5779,2.5779,0,2.5488,2.5524,2.5536,2.5561,2.5576,2.5581,2.5606,2.5621,2.5651,2.5661,2.5656,2.5705,2.572,2.5756,2.5764,2.5775,2.5782,2.5772,2.581,2.5813,2.5816,2.5828,2.5832,2.5779,2.5779,2.5779,2.5779,0,2.553,2.5554,2.5571,2.5602,2.5619,2.5643,2.5659,2.5675,2.568,2.5692,2.5723,2.5742,2.5768,2.5777,2.5782,2.5814,2.5811,2.5808,2.5797,2.5821,2.5832,2.5837,2.578,2.578,2.578,2.5779,0,0,2.5553,2.5592,2.5597,2.5612,2.564,2.5659,2.5685,2.5712,2.5725,2.5746,2.5767,2.5801,2.5799,2.5813,2.582,2.5836,2.5863,2.5831,2.5832,2.5836,2.59,2.5901,2.5906,2.5864,2.5865,2.5865,2.5898,0,2.5581,2.5627,2.564,2.5678,2.5702,2.5709,2.5731,2.5751,2.5763,2.5784,2.5797,2.5821,2.5816,2.5825,2.5842,2.5856,2.5875,2.5854,2.5883,2.5884,2.5876,2.5912,2.5913,2.5943,2.5902,2.5903,2.5904,0,2.5619,2.5643,2.5684,2.5711,2.5722,2.5741,2.5768,2.5788,2.5811,2.5819,2.5837,2.5843,2.5869,2.5859,2.5896,2.5881,2.5894,2.5903,2.5905,2.5907,2.5894,2.5915,2.5953,2.5957,2.5911,2.591,2.591,0,2.5632,2.5674,2.5704,2.5717,2.5749,2.5763,2.5777,2.5799,2.5815,2.5838,2.5848,2.5874,2.5887,2.5907,2.5919,2.5911,2.5956,2.5946,2.5962,2.5962,2.597,2.5969,2.601,2.598,2.598,2.598,2.598,0,2.5661,2.5686,2.5711,2.5729,2.5758,2.5773,2.58,2.5814,2.5835,2.5856,2.5864,2.5884,2.59,2.5922,2.5932,2.5961,2.5967,2.5974,2.5976,2.5973,2.5972,2.5981,2.5979,2.5981,2.5981,2.5981,2.598,0,2.5679,2.5697,2.573,2.5759,2.5767,2.5787,2.5811,2.583,2.5844,2.5871,2.5878,2.5899,2.5925,2.5941,2.5973,2.598,2.6013,2.6014,2.6005,2.6006,2.6021,2.6019,2.6069,2.6076,2.6041,2.6042,2.6042,0,2.5696,2.5716,2.5748,2.5763,2.5778,2.5803,2.5819,2.5835,2.5852,2.5881,2.5896,2.5924,2.5946,2.5988,2.6006,2.6032,2.6034,2.6049,2.6037,2.6034,2.6033,2.6032,2.6034,2.6051,2.6051,2.6051,2.6051,0,2.5724,2.5733,2.5757,2.5785,2.5805,2.5828,2.585,2.5862,2.5882,2.59,2.5928,2.5946,2.5981,2.6008,2.6036,2.605,2.6054,2.6056,2.606,2.6056,2.605,2.6054,2.601,2.6054,2.6053,2.6053,2.6053,2.6053,2.5742,2.576,2.5786,2.5813,2.5832,2.5853,2.5872,2.5889,2.5913,2.5944,2.5952,2.5981,2.6005,2.6043,2.6058,2.6081,2.6078,2.6086,2.6087,2.6089,2.6089,2.6048,2.6086,2.6086,2.6086,2.6086,2.6086,0,2.577,2.5788,2.5813,2.5845,2.5867,2.5871,2.5896,2.5913,2.594,2.5962,2.5985,2.6018,2.6045,2.6066,2.6093,2.6108,2.6111,2.6115,2.6113,2.6116,2.609,2.6083,2.6112,2.6112,2.6112,2.6112,2.6112,2.6112,2.5788,2.5819,2.5831,2.5872,2.5889,2.5919,2.5933,2.5953,2.5971,2.6008,2.6031,2.6045,2.6067,2.6097,2.6122,2.6127,2.6137,2.614,2.6146,2.6121,2.6118,2.6115,2.6108,2.6143,2.6143,2.617,2.617,2.6171]},{"header":{"parameterUnit":"m.s-1","parameterCategory":1,"la1":30.2991,"la2":30.254,"lo1":-89.0895,"lo2":-89.0444,"dy":0.0017,"dx":0.0017,"nx":28,"ny":28,"refTime":"2026-02-04T03:00:00:Z","depth":0,"parameterNumber":3,"parameterNumberName":"V-component_of_WINDS"},"data":[0,0,0,0,0,0,0,0,0,0,0,0,0,0,0,0,0,0,0,0,0,0,0,0,0,0,0,0,0,0,0,0,0,0,0,0,0,0,0,0,0,0,0,0,0,0,0,0,0,0,0,0,0,0,0,0,0,0,-8.4781,-8.4783,0,-8.4951,-8.4953,-8.4955,-8.4891,-8.4887,-8.4883,-8.4879,-8.5047,-8.5055,-8.5062,0,0,0,0,0,0,0,0,0,0,0,0,0,-8.4398,-8.4405,-8.4781,-8.4783,-8.4785,-8.495,-8.4953,-8.4955,-8.4891,-8.4887,-8.4882,-8.4878,-8.5044,-8.5054,-8.5063,0,0,0,0,0,0,0,0,0,0,0,0,0,-8.4565,-8.4408,-8.4781,-8.4774,-8.4775,-8.495,-8.4953,-8.4956,-8.4892,-8.4887,-8.4881,-8.4875,-8.5041,-8.5053,-8.5065,-8.5255,0,0,-8.5101,-8.5107,0,0,0,0,0,0,0,0,-8.4556,-8.458,-8.4773,-8.4774,-8.4776,-8.4894,-8.4879,-8.5056,-8.4894,-8.4848,-8.4879,-8.4873,-8.5,-8.5015,-8.5059,-8.5263,-8.527,-8.5103,-8.511,-8.5115,-8.5118,0,0,0,0,0,0,0,-8.4545,-8.4572,-8.4848,-8.4775,-8.4778,-8.4761,-8.4778,-8.4912,-8.4954,-8.4851,-8.4847,-8.4868,-8.5,-8.5048,-8.5063,-8.5272,-8.5102,-8.5113,-8.512,-8.5125,-8.5642,-8.5648,0,0,0,0,0,0,-8.4533,-8.4563,-8.4843,-8.4853,-8.465,-8.4772,-8.4792,-8.4862,-8.4952,-8.4961,-8.4873,-8.4865,-8.503,-8.5049,-8.5069,-8.5299,-8.5115,-8.5126,-8.5133,-8.5636,-8.5643,-8.5651,0,0,0,0,0,0,-8.4525,-8.4559,-8.4836,-8.4707,-8.4741,-8.4785,-8.4864,-8.4868,-8.4916,-8.4969,-8.4976,-8.4915,-8.5026,-8.5052,-8.521,-8.5304,-8.5132,-8.5143,-8.5628,-8.5638,-8.5647,-8.576,0,0,0,0,0,0,-8.4514,-8.4556,-8.463,-8.4709,-8.4748,-8.4976,-8.487,-8.4876,-8.4938,-8.4929,-8.501,-8.5018,-8.5024,-8.5192,-8.5222,-8.5317,-8.5152,-8.562,-8.5632,-8.5644,-8.5748,-8.5773,-8.5793,0,0,0,0,0,-8.4501,-8.4653,-8.4634,-8.4668,-8.4841,-8.4982,-8.5004,-8.5009,-8.4946,-8.502,-8.5054,-8.5015,-8.5289,-8.5209,-8.5242,-8.5342,-8.5614,-8.5629,-8.5643,-8.5738,-8.5768,-8.5793,0,0,0,0,0,0,-8.4581,-8.4663,-8.4643,-8.4825,-8.4898,-8.4971,-8.5064,-8.504,-8.513,-8.5117,-8.5118,-8.5137,-8.5301,-8.5337,-8.5247,-8.5532,-8.5441,-8.5463,-8.5503,-8.5531,-8.5553,-8.5541,-8.5162,0,0,0,0,0,-8.462,-8.4729,-8.4794,-8.4949,-8.4986,-8.502,-8.508,-8.5079,-8.5152,-8.5182,-8.5227,-8.5299,-8.5401,-8.5468,-8.5564,-8.5753,-8.577,-8.5838,-8.5861,-8.5879,-8.5898,-8.6002,-8.6034,-8.5698,-8.5698,-8.5698,0,0,-8.4701,-8.476,-8.4828,-8.4967,-8.5022,-8.5134,-8.5045,-8.5166,-8.5249,-8.5199,-8.5353,-8.5389,-8.5469,-8.5644,-8.5723,-8.5679,-8.5995,-8.5898,-8.5912,-8.5921,-8.602,-8.6052,-8.608,-8.5708,-8.5707,-8.5705,0,0,-8.4907,-8.4962,-8.5098,-8.5157,-8.5243,-8.5264,-8.5297,-8.5375,-8.5398,-8.5553,-8.5519,-8.5616,-8.5791,-8.585,-8.5903,-8.6134,-8.6102,-8.6166,-8.6283,-8.6385,-8.6411,-8.6435,-8.6518,-8.6548,-8.6184,-8.6184,-8.6185,0,-8.4997,-8.5165,-8.5171,-8.5296,-8.5358,-8.5322,-8.546,-8.5515,-8.5628,-8.5671,-8.5621,-8.5842,-8.5893,-8.6082,-8.6139,-8.6182,-8.622,-8.6156,-8.6407,-8.6431,-8.6453,-8.6532,-8.6564,-8.6192,-8.6191,-8.619,-8.6189,0,-8.5272,-8.539,-8.5489,-8.5602,-8.5675,-8.5806,-8.583,-8.5904,-8.5896,-8.5923,-8.6081,-8.6141,-8.6251,-8.6295,-8.6287,-8.6484,-8.6454,-8.6406,-8.6315,-8.6492,-8.6567,-8.6597,-8.6202,-8.6199,-8.6197,-8.6195,0,0,-8.5531,-8.5648,-8.5685,-8.5737,-8.583,-8.592,-8.6049,-8.6159,-8.6222,-8.6301,-8.641,-8.6561,-8.6517,-8.6577,-8.6576,-8.6665,-8.6847,-8.6606,-8.6608,-8.665,-8.7068,-8.7104,-8.714,-8.6826,-8.6832,-8.6836,-8.7061,0,-8.5745,-8.5975,-8.5985,-8.6193,-8.6302,-8.627,-8.6383,-8.6452,-8.648,-8.6576,-8.6606,-8.6714,-8.6648,-8.6684,-8.6771,-8.6806,-8.693,-8.679,-8.6926,-8.6931,-8.6908,-8.7178,-8.7217,-8.7427,-8.7091,-8.7096,-8.7099,0,-8.6025,-8.6117,-8.6338,-8.6418,-8.6464,-8.6565,-8.6668,-8.676,-8.6837,-8.6852,-8.6921,-8.6908,-8.7039,-8.6944,-8.7125,-8.7029,-8.7085,-8.7111,-8.712,-8.7133,-8.7026,-8.72,-8.7493,-8.7525,-8.7145,-8.7141,-8.7138,0,-8.6194,-8.6372,-8.6528,-8.6573,-8.667,-8.6742,-8.6786,-8.6858,-8.6924,-8.7013,-8.7056,-8.7158,-8.7213,-8.7292,-8.7307,-8.7236,-8.7489,-8.7394,-8.7504,-8.7504,-8.7558,-8.7555,-8.7866,-8.7594,-8.7593,-8.7593,-8.7592,0,-8.6433,-8.6569,-8.6605,-8.6701,-8.6853,-8.6862,-8.7012,-8.705,-8.7115,-8.7217,-8.7194,-8.7289,-8.7303,-8.7401,-8.7413,-8.7562,-8.7587,-8.7602,-8.7603,-8.7604,-8.7603,-8.7641,-8.7627,-8.7601,-8.7599,-8.7598,-8.7596,0,-8.6647,-8.6677,-8.6844,-8.6924,-8.6947,-8.7056,-8.7123,-8.7214,-8.7241,-8.737,-8.7401,-8.7443,-8.7558,-8.7581,-8.7715,-8.7723,-8.7901,-8.7888,-8.7876,-8.7875,-8.7984,-8.7974,-8.8331,-8.8379,-8.8075,-8.8077,-8.808,0,-8.6797,-8.6902,-8.6994,-8.7062,-8.711,-8.7219,-8.7287,-8.7301,-8.7372,-8.7471,-8.755,-8.7664,-8.7755,-8.794,-8.7982,-8.8085,-8.8074,-8.8193,-8.809,-8.8088,-8.8078,-8.8072,-8.8083,-8.8212,-8.8216,-8.8218,-8.8221,0,-8.7062,-8.7072,-8.7172,-8.728,-8.7362,-8.7446,-8.7526,-8.7582,-8.7606,-8.7688,-8.7807,-8.7878,-8.8018,-8.8131,-8.8235,-8.8278,-8.8254,-8.8253,-8.8284,-8.8286,-8.8276,-8.8284,-8.7931,-8.8244,-8.8242,-8.824,-8.8239,-8.8238,-8.7249,-8.7342,-8.7422,-8.7535,-8.7597,-8.7673,-8.7763,-8.7803,-8.7904,-8.8021,-8.8022,-8.8152,-8.8228,-8.8366,-8.8416,-8.8517,-8.848,-8.8524,-8.8536,-8.8547,-8.8558,-8.826,-8.8536,-8.8535,-8.8535,-8.8534,-8.8534,0,-8.7514,-8.7564,-8.7669,-8.7783,-8.7872,-8.7844,-8.7931,-8.8007,-8.8123,-8.8197,-8.8289,-8.8427,-8.8537,-8.8588,-8.8696,-8.8767,-8.8759,-8.8796,-8.8791,-8.8801,-8.8584,-8.8547,-8.8801,-8.8801,-8.8801,-8.88,-8.88,-8.88,-8.7662,-8.7817,-8.7838,-8.8024,-8.8073,-8.8203,-8.8255,-8.8325,-8.8385,-8.854,-8.8633,-8.8666,-8.8732,-8.8845,-8.8944,-8.8956,-8.8998,-8.904,-8.9047,-8.8843,-8.8816,-8.879,-8.8756,-8.9048,-8.9049,-8.9255,-8.9257,-8.9258]}]]